User: anonymous   Login
Location: Claremont
(33.9858°S, 18.4575°E)
Time: 16:14:54
(UTC+00:00)
Language:

deb Transit VC - Orbit

View from above orbital plane
View from above orbital plane
View from above satellite
View from above satellite

Ground track
Ground track

The orbit data is extracted from the following two-line orbital elements,

1 02986U 64026E   21267.82641606  .00000087  00000-0  47832-4 0  9997
2 02986  90.5344  96.4460 0046413 311.0438  48.6737 14.05493990931898
Epoch (UTC): 24 September 2021 19:50:02
Eccentricity: 0.0046413
inclination: 90.5344°
perigee height: 841 km
apogee height: 908 km
right ascension of ascending node: 96.4460°
argument of perigee: 311.0438°
revolutions per day: 14.05493990
mean anomaly at epoch: 48.6737°
orbit number at epoch: 93189

The dashed part of the orbit path shows where the satellite is in the earth's shadow,  

DLR